SBIRS GEO-4 (USA 273)

Last updated on Sat Jul 05 2025 00:02:46 GMT+0000 (Coordinated Universal Time)

1 41937U 17004A 25185.65514596 -.00000180 00000+0 00000+0 0 9996 2 41937 1.6632 28.7654 0001308 68.7506 153.9336 0.99978134 31105
UTC large
Height (km)
Speed (km/s)
/
Latitude / Longitude
Inclination (degrees)
Orbital Period (minutes)
Azimuth
Elevation
Range (km)
Doppler Factor

Next 0 passes for location: London (51.5072 / 0.1276)

Sorry there are no passes over London.